Find Starlink 37824

NORAD ID: 69956 Int'l Des: 2026-157 Owner: SPXS Country: US Constellation: starlink operational
LEOCIRCULAR

現在のビュー

3D地球を読み込み中...

About Starlink 37824

Starlink 37824 (NORAD 69956) is a starlink constellation satellite (v2 mini) launched Jul 9, 2026 by SPXS of US. It operates in LEO, CIRCULAR orbit with a mass of 575.00 kg.

次回通過

Passes for default location (London). Set your location on the main map for personalized predictions.

高度履歴

Loading altitude history...

軌道要素

1 69956U 26157P 26237.62271523 .00020561 00000-0 59853-3 0 9991
2 69956 53.1594 94.4321 0000680 69.2787 290.8289 15.35410552 7400
Epoch: Aug 25, 2026 • Age: 16 hours

現在のステータス

高度 460.4 km
遠地点 / 近地点 N/A
速度 7.64 km/s
衛星直下点 25.94°N, 37.42°E
打ち上げ日 Jul 9, 2026
運用期間 0.1 years
タイプ internet

技術仕様

分類 Payload
質量 575.00 kg
乾燥質量 530.00 kg
総質量 575.00 kg
長さ 0.30 m
直径 4.10 m
スパン 29.00 m
形状 Box + pan
製造者 SPXS
バスタイプ Starlink V2MO
フェーズステータス In Orbit
所有者/国 SPXS/US

Most Searched